Simultaneous Nadir Overpasses (SNOs) Predictions

Prediction of SNOs between METOP-B and NOAA-19 Satellite Orbit:

Table of predicted SNOs for the next 14.0 days since TLE Epoch: 4/6/2018
Index Date (METOP-B) Time (METOP-B) Lat,Lon (METOP-B) SZA (METOP-B ) Date (NOAA-19) Time (NOAA-19) Lat,Lon (NOAA-19) SZA (NOAA-19 ) Distance(km) Time Diff (sec)
1 04/13/2018 07:58:51 78.37, 70.24 69.41 04/13/2018 07:57:41 78.38, 68.14 69.35 47.03 70
2 04/13/2018 08:49:37 -78.19,-123.44 110.82 04/13/2018 08:48:31 -78.19,-123.40 110.83 0.90 66
3 04/13/2018 09:40:17 78.19, 43.93 69.18 04/13/2018 09:39:37 78.19, 43.83 69.16 2.32 40
4 04/13/2018 10:30:59 -78.17,-148.88 110.87 04/13/2018 10:30:32 -78.18,-148.85 110.86 1.04 27
5 04/13/2018 11:21:39 78.18, 18.49 69.13 04/13/2018 11:21:38 78.18, 18.38 69.13 2.49 1
6 04/13/2018 12:12:21 -78.15,-174.31 110.91 04/13/2018 12:12:33 -78.17,-174.30 110.89 1.93 12
7 04/13/2018 13:03:01 78.16, -6.95 69.09 04/13/2018 13:03:39 78.17, -7.07 69.10 3.11 38
8 04/13/2018 13:53:43 -78.14, 160.26 110.96 04/13/2018 13:54:34 -78.16, 160.24 110.92 2.95 51
9 04/13/2018 14:44:25 78.06, -32.81 68.95 04/13/2018 14:45:38 78.09, -32.08 69.01 16.95 73




NCC Satellite Simultaneous Nadir Overpasses (SNOs) Prediction Service
